Location: Boca de Tacagua
(10.5333°N, 66.9833°W)
Time: 04:39:24
(UTC+00:00)

Cosmos 1536 - Pass Details

Date: 11 July 2022
Orbit: 536 x 556 km, 82.5° (Epoch: 14 August)

Event Time Altitude Azimuth Distance (km) Brightness Sun altitude
Exits shadow 08:06:01 12° 347° (NNW) 1,734 5.5 -28.5°
Drops below altitude 10° 08:06:16 10° 348° (NNW) 1,832 5.7 -28.5°
Sets 08:08:30 0° 355° (N) 2,726 6.7 -28.0°
